| << 29.8. | 31.8. >> |
|
Windrichtung in Grad |
Windgeschw. in m/s |
Windspitzen in m/s |
Temp.Minima in °C |
Temperatur in °C |
Temp.Maxima in °C |
Luftfeuchte in % |
Luftdruck in hPa |
Taupunkt in °C |
Niederschlag in mm |
|
|---|---|---|---|---|---|---|---|---|---|---|
| ▲ Maxima | 2,5 | 7,9 | 22,1 | 22,5 | 22,8 | 81,8 | 1000,8 | 15,8 | 0,0 | |
| Ø Mittelwert | 233,9 | 1,0 | 2,8 | 18,9 | 19,2 | 19,4 | 65,7 | 999,5 | 13,7 | 0,0 |
| ▼ Minima | 0,0 | 0,4 | 16,0 | 16,2 | 16,4 | 51,7 | 997,1 | 12,7 | 0,0 | |
| ∑ Summe | 0,0 |
| Uhrzeit (MEZ) | Windrichtung in Grad | Windgeschw. in m/s | Windspitzen in m/s | Temp.Minima in °C | Temperatur in °C | Temp.Maxima in °C | Luftfeuchte in % | Luftdruck in hPa | Taupunkt in °C | Niederschlag in mm |
|---|---|---|---|---|---|---|---|---|---|---|
| 00:00 | 190,2 | 1,0 | 2,6 | 17,7 | 17,9 | 18,1 | 78,0 | 997,1 | 15,4 | 0,0 |
| 00:10 | 208,3 | 1,1 | 2,6 | 17,8 | 18,0 | 18,2 | 77,6 | 997,2 | 15,4 | 0,0 |
| 00:20 | 207,4 | 1,1 | 3,8 | 17,9 | 18,1 | 18,3 | 77,4 | 997,2 | 15,4 | 0,0 |
| 00:30 | 217,9 | 1,1 | 3,2 | 17,9 | 18,2 | 18,4 | 77,3 | 997,2 | 15,5 | 0,0 |
| 00:40 | 224,5 | 1,1 | 3,3 | 18,1 | 18,3 | 18,5 | 76,7 | 997,2 | 15,5 | 0,0 |
| 00:50 | 208,4 | 1,1 | 3,1 | 18,2 | 18,5 | 18,7 | 76,1 | 997,2 | 15,5 | 0,0 |
| 01:00 | 223,3 | 1,1 | 3,1 | 18,3 | 18,6 | 18,8 | 75,9 | 997,3 | 15,6 | 0,0 |
| 01:10 | 217,8 | 0,9 | 2,2 | 18,4 | 18,6 | 18,9 | 75,8 | 997,3 | 15,6 | 0,0 |
| 01:20 | 218,5 | 1,0 | 2,5 | 18,4 | 18,6 | 18,8 | 75,9 | 997,3 | 15,6 | 0,0 |
| 01:30 | 212,9 | 0,7 | 1,9 | 18,3 | 18,5 | 18,8 | 75,9 | 997,3 | 15,6 | 0,0 |
| 01:40 | 224,5 | 0,7 | 1,8 | 18,3 | 18,5 | 18,7 | 76,2 | 997,4 | 15,6 | 0,0 |
| 01:50 | 227,7 | 0,9 | 3,4 | 18,3 | 18,5 | 18,7 | 76,3 | 997,3 | 15,6 | 0,0 |
| 02:00 | 248,6 | 1,1 | 3,4 | 18,2 | 18,5 | 18,7 | 76,7 | 997,5 | 15,6 | 0,0 |
| 02:10 | 248,3 | 1,0 | 2,4 | 18,1 | 18,4 | 18,5 | 77,3 | 997,6 | 15,7 | 0,0 |
| 02:20 | 233,6 | 0,6 | 1,4 | 17,9 | 18,1 | 18,3 | 77,8 | 997,6 | 15,6 | 0,0 |
| 02:30 | 225,7 | 0,5 | 1,7 | 17,8 | 18,0 | 18,3 | 77,9 | 997,7 | 15,6 | 0,0 |
| 02:40 | 238,6 | 0,3 | 0,9 | 17,8 | 17,9 | 18,1 | 77,9 | 997,8 | 15,6 | 0,0 |
| 02:50 | 261,3 | 0,3 | 0,8 | 17,8 | 18,0 | 18,2 | 78,0 | 997,8 | 15,6 | 0,0 |
| 03:00 | 247,9 | 0,7 | 2,0 | 17,7 | 17,9 | 18,2 | 79,0 | 997,9 | 15,7 | 0,0 |
| 03:10 | 267,4 | 1,0 | 3,3 | 17,4 | 17,8 | 18,0 | 80,6 | 998,0 | 15,8 | 0,0 |
| 03:20 | 253,2 | 0,7 | 1,6 | 17,2 | 17,5 | 17,8 | 81,7 | 997,9 | 15,8 | 0,0 |
| 03:30 | 228,6 | 0,5 | 1,1 | 17,2 | 17,4 | 17,5 | 81,8 | 998,0 | 15,8 | 0,0 |
| 03:40 | 253,5 | 1,0 | 3,5 | 17,2 | 17,5 | 17,7 | 80,0 | 998,0 | 15,4 | 0,0 |
| 03:50 | 256,5 | 1,7 | 5,5 | 17,2 | 17,5 | 17,7 | 74,7 | 998,1 | 14,2 | 0,0 |
| 04:00 | 256,0 | 1,0 | 3,0 | 16,8 | 17,2 | 17,5 | 73,8 | 998,1 | 13,8 | 0,0 |
| 04:10 | 236,0 | 0,4 | 1,3 | 16,7 | 16,8 | 17,1 | 74,0 | 998,2 | 13,7 | 0,0 |
| 04:20 | 233,6 | 0,8 | 3,3 | 16,6 | 16,9 | 17,1 | 73,7 | 998,2 | 13,5 | 0,0 |
| 04:30 | 238,1 | 1,0 | 2,8 | 16,7 | 16,9 | 17,1 | 73,7 | 998,3 | 13,6 | 0,0 |
| 04:40 | 242,8 | 1,1 | 3,6 | 16,5 | 16,9 | 17,1 | 74,5 | 998,2 | 13,6 | 0,0 |
| 04:50 | 244,6 | 1,8 | 5,5 | 16,7 | 17,0 | 17,0 | 74,1 | 998,2 | 13,5 | 0,0 |
| 05:00 | 237,9 | 1,4 | 4,2 | 16,6 | 16,9 | 17,0 | 73,7 | 998,2 | 13,4 | 0,0 |
| 05:10 | 240,1 | 1,7 | 5,1 | 16,6 | 16,9 | 17,0 | 73,2 | 998,2 | 13,3 | 0,0 |
| 05:20 | 242,6 | 1,5 | 4,3 | 16,4 | 16,8 | 16,9 | 73,0 | 998,3 | 13,1 | 0,0 |
| 05:30 | 241,0 | 1,5 | 3,7 | 16,3 | 16,6 | 16,8 | 73,1 | 998,3 | 13,0 | 0,0 |
| 05:40 | 237,3 | 1,2 | 2,7 | 16,1 | 16,4 | 16,6 | 73,3 | 998,4 | 12,9 | 0,0 |
| 05:50 | 239,7 | 1,0 | 2,3 | 16,0 | 16,2 | 16,4 | 73,3 | 998,4 | 12,8 | 0,0 |
| 06:00 | 240,9 | 0,9 | 2,0 | 16,0 | 16,3 | 16,5 | 72,8 | 998,4 | 12,7 | 0,0 |
| 06:10 | 243,1 | 1,0 | 3,3 | 16,3 | 16,5 | 16,9 | 72,0 | 998,5 | 12,8 | 0,0 |
| 06:20 | 236,1 | 1,2 | 3,8 | 16,5 | 16,9 | 17,1 | 70,7 | 998,6 | 12,8 | 0,0 |
| 06:30 | 230,9 | 1,1 | 3,7 | 16,8 | 17,1 | 17,4 | 70,0 | 998,7 | 12,9 | 0,0 |
| 06:40 | 230,1 | 0,9 | 3,1 | 17,1 | 17,4 | 17,6 | 69,4 | 998,8 | 13,0 | 0,0 |
| 06:50 | 223,7 | 1,1 | 3,1 | 17,3 | 17,6 | 17,9 | 69,0 | 998,9 | 13,1 | 0,0 |
| 07:00 | 239,7 | 1,1 | 3,8 | 17,4 | 17,7 | 18,0 | 68,6 | 999,0 | 13,1 | 0,0 |
| 07:10 | 235,4 | 0,9 | 3,5 | 17,6 | 17,9 | 18,2 | 67,9 | 999,1 | 13,2 | 0,0 |
| 07:20 | 224,1 | 1,2 | 3,9 | 17,7 | 18,0 | 18,2 | 67,5 | 999,1 | 13,1 | 0,0 |
| 07:30 | 215,7 | 1,1 | 3,6 | 17,6 | 17,8 | 18,1 | 67,7 | 999,2 | 13,0 | 0,0 |
| 07:40 | 223,2 | 0,9 | 3,9 | 17,8 | 18,2 | 18,5 | 66,7 | 999,3 | 13,2 | 0,0 |
| 07:50 | 202,2 | 0,8 | 2,4 | 18,2 | 18,8 | 19,3 | 65,1 | 999,4 | 13,4 | 0,0 |
| Uhrzeit (MEZ) | Windrichtung in Grad | Windgeschw. in m/s | Windspitzen in m/s | Temp.Minima in °C | Temperatur in °C | Temp.Maxima in °C | Luftfeuchte in % | Luftdruck in hPa | Taupunkt in °C | Niederschlag in mm |
|---|---|---|---|---|---|---|---|---|---|---|
| 08:00 | 226,5 | 1,0 | 3,1 | 18,8 | 19,1 | 19,4 | 64,4 | 999,5 | 13,4 | 0,0 |
| 08:10 | 255,3 | 1,3 | 4,4 | 18,1 | 18,5 | 19,1 | 66,5 | 999,6 | 13,3 | 0,0 |
| 08:20 | 241,3 | 1,0 | 3,0 | 17,8 | 18,1 | 18,3 | 67,6 | 999,7 | 13,2 | 0,0 |
| 08:30 | 246,0 | 1,1 | 3,8 | 17,8 | 18,1 | 18,3 | 67,5 | 999,8 | 13,2 | 0,0 |
| 08:40 | 243,1 | 1,4 | 3,9 | 17,8 | 18,1 | 18,3 | 67,8 | 999,9 | 13,2 | 0,0 |
| 08:50 | 235,3 | 1,4 | 3,9 | 17,7 | 18,0 | 18,2 | 67,8 | 1000,0 | 13,2 | 0,0 |
| 09:00 | 255,3 | 1,4 | 3,4 | 17,7 | 18,1 | 18,2 | 68,0 | 1000,1 | 13,2 | 0,0 |
| 09:10 | 252,3 | 1,2 | 3,4 | 17,8 | 18,1 | 18,2 | 68,3 | 1000,2 | 13,3 | 0,0 |
| 09:20 | 244,6 | 1,6 | 4,0 | 17,8 | 18,2 | 18,3 | 68,1 | 1000,3 | 13,3 | 0,0 |
| 09:30 | 251,2 | 1,8 | 4,1 | 18,1 | 18,2 | 18,3 | 68,5 | 1000,4 | 13,4 | 0,0 |
| 09:40 | 245,5 | 2,0 | 5,7 | 18,1 | 18,2 | 18,3 | 68,4 | 1000,5 | 13,4 | 0,0 |
| 09:50 | 242,9 | 1,5 | 3,2 | 18,0 | 18,3 | 18,4 | 68,3 | 1000,5 | 13,5 | 0,0 |
| 10:00 | 246,4 | 1,1 | 3,0 | 18,1 | 18,3 | 18,6 | 67,8 | 1000,6 | 13,5 | 0,0 |
| 10:10 | 239,3 | 1,3 | 4,9 | 18,3 | 18,5 | 18,7 | 66,8 | 1000,6 | 13,4 | 0,0 |
| 10:20 | 246,0 | 1,9 | 5,6 | 18,6 | 18,8 | 18,9 | 66,1 | 1000,6 | 13,5 | 0,0 |
| 10:30 | 250,2 | 1,7 | 4,4 | 18,8 | 19,1 | 19,3 | 65,6 | 1000,6 | 13,6 | 0,0 |
| 10:40 | 246,8 | 2,1 | 5,9 | 19,1 | 19,3 | 19,4 | 65,0 | 1000,7 | 13,6 | 0,0 |
| 10:50 | 251,2 | 2,5 | 7,9 | 18,9 | 19,2 | 19,4 | 65,3 | 1000,8 | 13,5 | 0,0 |
| 11:00 | 256,5 | 1,4 | 3,5 | 18,8 | 19,3 | 19,6 | 65,8 | 1000,8 | 13,9 | 0,0 |
| 11:10 | 253,5 | 2,2 | 5,7 | 19,3 | 19,5 | 19,6 | 64,4 | 1000,7 | 13,6 | 0,0 |
| 11:20 | 248,8 | 1,8 | 4,7 | 19,3 | 19,5 | 19,6 | 64,4 | 1000,8 | 13,7 | 0,0 |
| 11:30 | 261,8 | 1,6 | 3,9 | 19,3 | 19,7 | 19,9 | 63,4 | 1000,7 | 13,6 | 0,0 |
| 11:40 | 259,5 | 2,0 | 6,2 | 19,6 | 19,8 | 19,9 | 62,6 | 1000,6 | 13,5 | 0,0 |
| 11:50 | 265,5 | 1,7 | 4,5 | 19,8 | 20,1 | 20,2 | 62,4 | 1000,6 | 13,7 | 0,0 |
| 12:00 | 251,9 | 1,3 | 3,0 | 20,0 | 20,6 | 21,2 | 60,7 | 1000,5 | 13,8 | 0,0 |
| 12:10 | 261,6 | 1,5 | 4,3 | 20,9 | 21,3 | 21,6 | 58,7 | 1000,5 | 13,9 | 0,0 |
| 12:20 | 265,1 | 1,2 | 3,9 | 20,6 | 21,0 | 21,3 | 59,5 | 1000,6 | 13,9 | 0,0 |
| 12:30 | 275,1 | 1,6 | 4,8 | 20,5 | 20,9 | 21,2 | 60,1 | 1000,6 | 13,9 | 0,0 |
| 12:40 | 254,3 | 1,3 | 2,6 | 20,4 | 21,1 | 21,4 | 59,0 | 1000,6 | 13,9 | 0,0 |
| 12:50 | 263,8 | 1,4 | 3,9 | 20,9 | 21,4 | 21,6 | 57,6 | 1000,6 | 13,7 | 0,0 |
| 13:00 | 259,7 | 1,3 | 3,9 | 21,0 | 21,4 | 21,7 | 56,9 | 1000,6 | 13,5 | 0,0 |
| 13:10 | 256,8 | 1,6 | 4,4 | 20,9 | 21,3 | 21,5 | 57,1 | 1000,7 | 13,4 | 0,0 |
| 13:20 | 260,1 | 1,6 | 3,1 | 20,9 | 21,3 | 21,4 | 55,9 | 1000,7 | 13,0 | 0,0 |
| 13:30 | 247,6 | 1,0 | 2,3 | 21,2 | 21,5 | 22,0 | 55,4 | 1000,7 | 13,2 | 0,0 |
| 13:40 | 244,2 | 1,7 | 4,7 | 21,7 | 22,0 | 22,2 | 53,3 | 1000,7 | 13,0 | 0,0 |
| 13:50 | 244,1 | 0,9 | 3,2 | 21,6 | 22,1 | 22,7 | 53,2 | 1000,7 | 13,2 | 0,0 |
| 14:00 | 258,8 | 1,2 | 2,9 | 22,0 | 22,3 | 22,7 | 51,8 | 1000,6 | 12,9 | 0,0 |
| 14:10 | 251,9 | 0,9 | 2,5 | 21,7 | 22,1 | 22,3 | 53,2 | 1000,6 | 13,2 | 0,0 |
| 14:20 | 243,6 | 1,9 | 4,0 | 22,1 | 22,5 | 22,7 | 51,7 | 1000,6 | 12,9 | 0,0 |
| 14:30 | 252,9 | 1,1 | 2,8 | 21,7 | 22,0 | 22,2 | 53,5 | 1000,7 | 13,1 | 0,0 |
| 14:40 | 227,6 | 1,0 | 3,2 | 21,8 | 22,1 | 22,2 | 52,2 | 1000,7 | 12,8 | 0,0 |
| 14:50 | 269,0 | 1,3 | 4,4 | 22,1 | 22,4 | 22,8 | 52,7 | 1000,6 | 13,2 | 0,0 |
| 15:00 | 247,0 | 1,5 | 4,6 | 21,9 | 22,3 | 22,5 | 52,8 | 1000,6 | 13,1 | 0,0 |
| 15:10 | 243,2 | 1,6 | 5,6 | 21,6 | 21,9 | 22,2 | 53,0 | 1000,6 | 12,8 | 0,0 |
| 15:20 | 255,9 | 1,1 | 3,1 | 21,3 | 21,6 | 21,8 | 53,6 | 1000,6 | 12,8 | 0,0 |
| 15:30 | 239,2 | 1,2 | 3,6 | 21,7 | 22,0 | 22,3 | 52,8 | 1000,6 | 12,9 | 0,0 |
| 15:40 | 269,2 | 1,1 | 2,7 | 21,7 | 22,0 | 22,3 | 53,0 | 1000,5 | 13,0 | 0,0 |
| 15:50 | 251,8 | 1,1 | 2,7 | 21,6 | 22,0 | 22,2 | 54,0 | 1000,5 | 13,2 | 0,0 |
| Uhrzeit (MEZ) | Windrichtung in Grad | Windgeschw. in m/s | Windspitzen in m/s | Temp.Minima in °C | Temperatur in °C | Temp.Maxima in °C | Luftfeuchte in % | Luftdruck in hPa | Taupunkt in °C | Niederschlag in mm |
|---|---|---|---|---|---|---|---|---|---|---|
| 16:00 | 258,1 | 1,4 | 4,3 | 21,4 | 21,7 | 21,9 | 54,1 | 1000,5 | 13,0 | 0,0 |
| 16:10 | 274,7 | 1,3 | 4,4 | 21,1 | 21,5 | 21,7 | 54,6 | 1000,4 | 13,0 | 0,0 |
| 16:20 | 263,9 | 1,0 | 2,6 | 21,2 | 21,5 | 21,8 | 55,5 | 1000,4 | 13,3 | 0,0 |
| 16:30 | 255,6 | 1,1 | 2,7 | 21,3 | 21,6 | 21,8 | 55,9 | 1000,3 | 13,4 | 0,0 |
| 16:40 | 248,5 | 0,7 | 1,5 | 21,3 | 21,4 | 21,7 | 56,4 | 1000,3 | 13,6 | 0,0 |
| 16:50 | 253,8 | 0,9 | 2,4 | 21,3 | 21,6 | 21,8 | 57,0 | 1000,3 | 13,8 | 0,0 |
| 17:00 | 247,9 | 0,9 | 2,0 | 21,0 | 21,3 | 21,5 | 57,7 | 1000,4 | 13,7 | 0,0 |
| 17:10 | 265,3 | 0,9 | 2,2 | 20,9 | 21,2 | 21,5 | 58,1 | 1000,4 | 13,8 | 0,0 |
| 17:20 | 251,9 | 0,7 | 2,1 | 20,8 | 21,0 | 21,4 | 58,8 | 1000,3 | 13,9 | 0,0 |
| 17:30 | 253,6 | 0,7 | 1,5 | 20,9 | 21,1 | 21,4 | 59,2 | 1000,4 | 14,1 | 0,0 |
| 17:40 | 263,3 | 0,4 | 1,2 | 20,9 | 21,1 | 21,3 | 59,6 | 1000,3 | 14,2 | 0,0 |
| 17:50 | 251,6 | 0,4 | 1,2 | 20,9 | 21,1 | 21,4 | 60,0 | 1000,2 | 14,4 | 0,0 |
| 18:00 | 233,2 | 0,2 | 0,9 | 20,9 | 21,0 | 21,1 | 60,7 | 1000,3 | 14,5 | 0,0 |
| 18:10 | 253,4 | 0,3 | 0,8 | 20,7 | 20,9 | 21,2 | 61,4 | 1000,2 | 14,5 | 0,0 |
| 18:20 | 254,1 | 0,3 | 0,8 | 20,7 | 20,8 | 21,0 | 61,1 | 1000,2 | 14,4 | 0,0 |
| 18:30 | 233,6 | 0,4 | 1,0 | 20,4 | 20,7 | 20,9 | 60,6 | 1000,2 | 14,1 | 0,0 |
| 18:40 | 211,7 | 0,4 | 1,6 | 20,4 | 20,6 | 20,7 | 59,6 | 1000,2 | 13,7 | 0,0 |
| 18:50 | 233,2 | 0,5 | 1,9 | 20,3 | 20,4 | 20,6 | 59,0 | 1000,2 | 13,3 | 0,0 |
| 19:00 | 191,1 | 0,4 | 1,4 | 20,1 | 20,2 | 20,4 | 59,5 | 1000,1 | 13,4 | 0,0 |
| 19:10 | 217,1 | 0,6 | 1,8 | 20,0 | 20,1 | 20,3 | 59,9 | 1000,1 | 13,4 | 0,0 |
| 19:20 | 197,7 | 0,3 | 1,1 | 19,7 | 19,8 | 20,0 | 60,7 | 1000,1 | 13,4 | 0,0 |
| 19:30 | 191,1 | 0,2 | 0,8 | 19,7 | 19,8 | 19,9 | 61,4 | 1000,1 | 13,5 | 0,0 |
| 19:40 | 189,6 | 0,3 | 0,9 | 19,4 | 19,6 | 19,9 | 62,2 | 1000,1 | 13,6 | 0,0 |
| 19:50 | 173,9 | 0,4 | 1,0 | 19,3 | 19,4 | 19,6 | 62,7 | 1000,1 | 13,5 | 0,0 |
| 20:00 | 199,6 | 0,4 | 1,0 | 19,1 | 19,3 | 19,5 | 62,6 | 1000,1 | 13,3 | 0,0 |
| 20:10 | 193,1 | 0,3 | 0,7 | 19,1 | 19,2 | 19,3 | 62,9 | 1000,1 | 13,3 | 0,0 |
| 20:20 | 179,2 | 0,2 | 0,9 | 19,0 | 19,1 | 19,3 | 63,3 | 1000,1 | 13,4 | 0,0 |
| 20:30 | 213,8 | 0,4 | 1,0 | 18,9 | 19,1 | 19,3 | 63,1 | 1000,0 | 13,3 | 0,0 |
| 20:40 | 219,3 | 0,3 | 1,1 | 18,9 | 19,0 | 19,2 | 62,9 | 1000,0 | 13,2 | 0,0 |
| 20:50 | 218,5 | 0,4 | 0,8 | 18,8 | 19,0 | 19,1 | 62,9 | 1000,0 | 13,1 | 0,0 |
| 21:00 | 219,5 | 0,4 | 0,9 | 18,8 | 18,9 | 19,1 | 63,1 | 999,9 | 13,1 | 0,0 |
| 21:10 | 202,6 | 0,2 | 0,7 | 18,7 | 18,8 | 18,9 | 63,8 | 999,8 | 13,2 | 0,0 |
| 21:20 | 228,4 | 0,0 | 0,5 | 18,7 | 18,8 | 18,9 | 63,5 | 999,7 | 13,2 | 0,0 |
| 21:30 | 225,9 | 0,1 | 0,5 | 18,6 | 18,7 | 19,0 | 63,6 | 999,7 | 13,1 | 0,0 |
| 21:40 | 124,7 | 0,1 | 0,5 | 18,7 | 18,7 | 18,8 | 64,1 | 999,7 | 13,3 | 0,0 |
| 21:50 | 228,7 | 0,1 | 0,5 | 18,6 | 18,7 | 18,9 | 64,2 | 999,7 | 13,3 | 0,0 |
| 22:00 | 138,5 | 0,1 | 0,7 | 18,6 | 18,7 | 18,8 | 64,3 | 999,6 | 13,2 | 0,0 |
| 22:10 | 77,8 | 0,0 | 0,4 | 18,5 | 18,6 | 18,7 | 64,6 | 999,6 | 13,3 | 0,0 |
| 22:20 | 109,9 | 0,2 | 0,8 | 18,5 | 18,6 | 18,8 | 64,6 | 999,5 | 13,3 | 0,0 |
| 22:30 | 152,5 | 0,2 | 0,6 | 18,3 | 18,4 | 18,6 | 64,9 | 999,5 | 13,2 | 0,0 |
| 22:40 | 175,9 | 0,2 | 1,0 | 18,2 | 18,3 | 18,5 | 64,9 | 999,5 | 13,1 | 0,0 |
| 22:50 | 193,9 | 0,3 | 0,9 | 18,0 | 18,2 | 18,3 | 65,5 | 999,6 | 13,0 | 0,0 |
| 23:00 | 194,1 | 0,4 | 0,9 | 17,8 | 18,0 | 18,2 | 66,3 | 999,5 | 13,0 | 0,0 |
| 23:10 | 190,1 | 0,4 | 1,3 | 17,7 | 17,9 | 18,1 | 66,8 | 999,3 | 13,0 | 0,0 |
| 23:20 | 176,3 | 0,4 | 1,0 | 17,6 | 17,7 | 17,9 | 67,4 | 999,3 | 13,0 | 0,0 |
| 23:30 | 154,3 | 0,4 | 1,0 | 17,6 | 17,7 | 17,8 | 67,4 | 999,1 | 13,0 | 0,0 |
| 23:40 | 135,6 | 0,3 | 0,9 | 17,6 | 17,7 | 17,8 | 67,7 | 999,0 | 13,0 | 0,0 |
| 23:50 | 179,9 | 0,2 | 0,7 | 17,5 | 17,6 | 17,7 | 68,1 | 999,1 | 13,1 | 0,0 |
| << 29.8. | 31.8. >> |